Time,TemperatureF,DewpointF,PressureIn,WindDirection,WindDirectionDegrees,WindSpeedMPH,WindSpeedGustMPH,Humidity,HourlyPrecipIn,Conditions,Clouds,dailyrainin,SoftwareType,DateUTC
2013-04-20 00:01:00,48.0,31.6,30.27,ESE,117,3.0,5.0,53,0.00,,,0.00,meteohub,2013-04-20 05:01:00,
2013-04-20 00:07:00,47.8,32.0,30.27,East,91,3.0,4.0,54,0.00,,,0.00,meteohub,2013-04-20 05:07:00,
2013-04-20 00:11:00,47.5,32.2,30.27,East,97,2.0,4.0,55,0.00,,,0.00,meteohub,2013-04-20 05:11:00,
2013-04-20 00:16:00,47.3,32.0,30.27,East,86,3.0,4.0,55,0.00,,,0.00,meteohub,2013-04-20 05:16:00,
2013-04-20 00:21:00,47.1,31.8,30.27,East,79,3.0,4.0,55,0.00,,,0.00,meteohub,2013-04-20 05:21:00,
2013-04-20 00:27:00,47.1,32.2,30.27,ENE,78,2.0,4.0,56,0.00,,,0.00,meteohub,2013-04-20 05:27:00,
2013-04-20 00:31:00,46.9,32.0,30.27,East,97,4.0,4.0,56,0.00,,,0.00,meteohub,2013-04-20 05:31:00,
2013-04-20 00:37:00,46.9,32.0,30.27,ENE,77,5.0,5.0,56,0.00,,,0.00,meteohub,2013-04-20 05:37:00,
2013-04-20 00:42:00,46.8,31.8,30.27,ENE,65,5.0,8.0,56,0.00,,,0.00,meteohub,2013-04-20 05:42:00,
2013-04-20 00:47:00,46.8,31.8,30.27,ENE,77,3.0,8.0,56,0.00,,,0.00,meteohub,2013-04-20 05:47:00,
2013-04-20 00:52:00,46.8,31.8,30.27,ENE,65,6.0,8.0,56,0.00,,,0.00,meteohub,2013-04-20 05:52:00,
2013-04-20 00:57:00,46.8,31.8,30.27,ENE,74,7.0,10.0,56,0.00,,,0.00,meteohub,2013-04-20 05:57:00,
2013-04-20 01:02:00,46.8,31.5,30.27,East,80,7.0,10.0,55,0.00,,,0.00,meteohub,2013-04-20 06:02:00,
2013-04-20 01:07:00,46.9,31.1,30.27,ENE,70,9.0,11.0,54,0.00,,,0.00,meteohub,2013-04-20 06:07:00,
2013-04-20 01:12:00,46.9,30.7,30.27,ENE,75,8.0,13.0,53,0.00,,,0.00,meteohub,2013-04-20 06:12:00,
2013-04-20 01:17:00,46.9,30.7,30.27,East,84,9.0,13.0,53,0.00,,,0.00,meteohub,2013-04-20 06:17:00,
2013-04-20 01:22:00,46.8,30.6,30.27,East,82,6.0,13.0,53,0.00,,,0.00,meteohub,2013-04-20 06:22:00,
2013-04-20 01:27:00,46.8,30.6,30.28,East,98,7.0,11.0,53,0.00,,,0.00,meteohub,2013-04-20 06:27:00,
2013-04-20 01:32:00,46.8,30.0,30.27,ENE,72,8.0,11.0,52,0.00,,,0.00,meteohub,2013-04-20 06:32:00,
2013-04-20 01:37:00,46.6,30.4,30.27,ENE,68,7.0,12.0,53,0.00,,,0.00,meteohub,2013-04-20 06:37:00,
2013-04-20 01:42:00,46.6,30.4,30.27,ENE,68,8.0,12.0,53,0.00,,,0.00,meteohub,2013-04-20 06:42:00,
2013-04-20 01:47:00,46.6,30.4,30.27,ENE,67,8.0,11.0,53,0.00,,,0.00,meteohub,2013-04-20 06:47:00,
2013-04-20 01:52:00,46.2,30.0,30.27,ENE,65,9.0,13.0,53,0.00,,,0.00,meteohub,2013-04-20 06:52:00,
2013-04-20 01:57:00,46.2,30.0,30.27,East,81,10.0,13.0,53,0.00,,,0.00,meteohub,2013-04-20 06:57:00,
2013-04-20 02:02:00,46.0,30.4,30.27,ENE,68,10.0,14.0,54,0.00,,,0.00,meteohub,2013-04-20 07:02:00,
2013-04-20 02:07:00,45.9,30.2,30.27,East,94,6.0,16.0,54,0.00,,,0.00,meteohub,2013-04-20 07:07:00,
2013-04-20 02:12:00,45.7,30.0,30.27,NE,54,5.0,16.0,54,0.00,,,0.00,meteohub,2013-04-20 07:12:00,
2013-04-20 02:17:00,45.7,30.0,30.27,ENE,75,8.0,16.0,54,0.00,,,0.00,meteohub,2013-04-20 07:17:00,
2013-04-20 02:22:00,45.3,29.7,30.27,ENE,75,6.0,12.0,54,0.00,,,0.00,meteohub,2013-04-20 07:22:00,
2013-04-20 02:27:00,45.1,30.0,30.27,ENE,74,5.0,12.0,55,0.00,,,0.00,meteohub,2013-04-20 07:27:00,
2013-04-20 02:32:00,45.1,29.5,30.27,ENE,75,8.0,12.0,54,0.00,,,0.00,meteohub,2013-04-20 07:32:00,
2013-04-20 02:37:00,45.0,29.3,30.27,ENE,75,5.0,12.0,54,0.00,,,0.00,meteohub,2013-04-20 07:37:00,
2013-04-20 02:42:00,45.0,29.3,30.27,East,84,5.0,12.0,54,0.00,,,0.00,meteohub,2013-04-20 07:42:00,
2013-04-20 02:47:00,44.8,29.7,30.27,ENE,77,4.0,11.0,55,0.00,,,0.00,meteohub,2013-04-20 07:47:00,
2013-04-20 02:52:00,44.4,29.3,30.27,East,82,4.0,11.0,55,0.00,,,0.00,meteohub,2013-04-20 07:52:00,
2013-04-20 02:57:00,44.4,29.3,30.27,East,89,5.0,9.0,55,0.00,,,0.00,meteohub,2013-04-20 07:57:00,
2013-04-20 03:02:00,44.4,29.3,30.27,ENE,77,5.0,9.0,55,0.00,,,0.00,meteohub,2013-04-20 08:02:00,
2013-04-20 03:07:00,44.2,29.1,30.27,ENE,78,6.0,9.0,55,0.00,,,0.00,meteohub,2013-04-20 08:07:00,
2013-04-20 03:12:00,44.2,29.1,30.28,East,100,6.0,9.0,55,0.00,,,0.00,meteohub,2013-04-20 08:12:00,
2013-04-20 03:17:00,44.1,28.9,30.27,East,80,5.0,9.0,55,0.00,,,0.00,meteohub,2013-04-20 08:17:00,
2013-04-20 03:22:00,44.1,29.3,30.27,East,84,7.0,9.0,56,0.00,,,0.00,meteohub,2013-04-20 08:22:00,
2013-04-20 03:27:00,43.9,29.1,30.27,East,95,9.0,9.0,56,0.00,,,0.00,meteohub,2013-04-20 08:27:00,
2013-04-20 03:32:00,43.9,28.8,30.27,ENE,73,8.0,12.0,55,0.00,,,0.00,meteohub,2013-04-20 08:32:00,
2013-04-20 03:37:00,43.9,28.8,30.27,ENE,63,11.0,15.0,55,0.00,,,0.00,meteohub,2013-04-20 08:37:00,
2013-04-20 03:42:00,43.7,29.1,30.27,East,96,10.0,16.0,56,0.00,,,0.00,meteohub,2013-04-20 08:42:00,
2013-04-20 03:47:00,43.5,28.9,30.26,East,87,11.0,16.0,56,0.00,,,0.00,meteohub,2013-04-20 08:47:00,
2013-04-20 03:52:00,43.3,29.1,30.27,East,100,8.0,15.0,57,0.00,,,0.00,meteohub,2013-04-20 08:52:00,
2013-04-20 03:57:00,43.2,28.9,30.27,East,100,9.0,15.0,57,0.00,,,0.00,meteohub,2013-04-20 08:57:00,
2013-04-20 04:02:00,43.0,29.3,30.27,East,84,12.0,15.0,58,0.00,,,0.00,meteohub,2013-04-20 09:02:00,
2013-04-20 04:07:00,43.0,29.7,30.27,ESE,110,8.0,13.0,59,0.00,,,0.00,meteohub,2013-04-20 09:07:00,
2013-04-20 04:12:00,42.6,29.3,30.27,ENE,78,6.0,13.0,59,0.00,,,0.00,meteohub,2013-04-20 09:12:00,
2013-04-20 04:17:00,42.6,29.3,30.27,East,92,7.0,13.0,59,0.00,,,0.00,meteohub,2013-04-20 09:17:00,
2013-04-20 04:22:00,42.4,29.1,30.27,East,91,10.0,12.0,59,0.00,,,0.00,meteohub,2013-04-20 09:22:00,
2013-04-20 04:27:00,42.4,29.5,30.27,East,95,8.0,12.0,60,0.00,,,0.00,meteohub,2013-04-20 09:27:00,
2013-04-20 04:32:00,42.4,29.5,30.27,East,80,5.0,12.0,60,0.00,,,0.00,meteohub,2013-04-20 09:32:00,
2013-04-20 04:37:00,42.3,29.3,30.27,ENE,72,8.0,12.0,60,0.00,,,0.00,meteohub,2013-04-20 09:37:00,
2013-04-20 04:42:00,42.3,29.3,30.28,East,96,10.0,14.0,60,0.00,,,0.00,meteohub,2013-04-20 09:42:00,
2013-04-20 04:47:00,42.1,29.1,30.28,ENE,71,10.0,15.0,60,0.00,,,0.00,meteohub,2013-04-20 09:47:00,
2013-04-20 04:52:00,41.9,29.5,30.27,ESE,102,7.0,16.0,61,0.00,,,0.00,meteohub,2013-04-20 09:52:00,
2013-04-20 04:57:00,41.7,29.3,30.27,ESE,103,8.0,16.0,61,0.00,,,0.00,meteohub,2013-04-20 09:57:00,
2013-04-20 05:02:00,41.7,29.3,30.27,East,86,12.0,16.0,61,0.00,,,0.00,meteohub,2013-04-20 10:02:00,
2013-04-20 05:07:00,41.7,29.3,30.27,East,80,16.0,19.0,61,0.00,,,0.00,meteohub,2013-04-20 10:07:00,
2013-04-20 05:12:00,41.5,29.1,30.27,ESE,106,11.0,19.0,61,0.00,,,0.00,meteohub,2013-04-20 10:12:00,
2013-04-20 05:17:00,41.4,29.3,30.27,East,80,9.0,19.0,62,0.00,,,0.00,meteohub,2013-04-20 10:17:00,
2013-04-20 05:22:00,41.2,29.5,30.27,East,83,10.0,19.0,63,0.00,,,0.00,meteohub,2013-04-20 10:22:00,
2013-04-20 05:27:00,40.8,29.1,30.27,East,86,10.0,19.0,63,0.00,,,0.00,meteohub,2013-04-20 10:27:00,
2013-04-20 05:32:00,40.8,29.7,30.27,East,89,13.0,15.0,64,0.00,,,0.00,meteohub,2013-04-20 10:32:00,
2013-04-20 05:37:00,40.6,29.5,30.27,East,81,12.0,17.0,64,0.00,,,0.00,meteohub,2013-04-20 10:37:00,
2013-04-20 05:42:00,40.6,29.5,30.27,ESE,103,10.0,17.0,64,0.00,,,0.00,meteohub,2013-04-20 10:42:00,
2013-04-20 05:47:00,40.6,29.5,30.27,ESE,103,10.0,17.0,64,0.00,,,0.00,meteohub,2013-04-20 10:47:00,
2013-04-20 05:52:00,40.5,29.3,30.27,East,95,14.0,20.0,64,0.00,,,0.00,meteohub,2013-04-20 10:52:00,
2013-04-20 05:57:00,40.5,29.3,30.27,East,91,11.0,20.0,64,0.00,,,0.00,meteohub,2013-04-20 10:57:00,
2013-04-20 06:02:00,40.5,29.3,30.27,ENE,75,12.0,16.0,64,0.00,,,0.00,meteohub,2013-04-20 11:02:00,
2013-04-20 06:07:00,40.3,29.1,30.27,East,91,15.0,16.0,64,0.00,,,0.00,meteohub,2013-04-20 11:07:00,
2013-04-20 06:12:00,40.3,29.5,30.27,ESE,106,13.0,20.0,65,0.00,,,0.00,meteohub,2013-04-20 11:12:00,
2013-04-20 06:17:00,40.3,29.5,30.27,East,95,13.0,20.0,65,0.00,,,0.00,meteohub,2013-04-20 11:17:00,
2013-04-20 06:22:00,40.1,29.3,30.27,East,91,12.0,20.0,65,0.00,,,0.00,meteohub,2013-04-20 11:22:00,
2013-04-20 06:27:00,40.1,29.3,30.27,ENE,75,12.0,20.0,65,0.00,,,0.00,meteohub,2013-04-20 11:27:00,
2013-04-20 06:32:00,40.3,29.5,30.27,East,86,9.0,20.0,65,0.00,,,0.00,meteohub,2013-04-20 11:32:00,
2013-04-20 06:37:00,40.3,29.5,30.27,East,80,11.0,19.0,65,0.00,,,0.00,meteohub,2013-04-20 11:37:00,
2013-04-20 06:42:00,40.3,29.5,30.27,East,81,11.0,19.0,65,0.00,,,0.00,meteohub,2013-04-20 11:42:00,
2013-04-20 06:47:00,40.3,29.1,30.27,ESE,103,13.0,19.0,64,0.00,,,0.00,meteohub,2013-04-20 11:47:00,
2013-04-20 06:52:00,40.3,29.1,30.27,ENE,66,10.0,19.0,64,0.00,,,0.00,meteohub,2013-04-20 11:52:00,
2013-04-20 06:57:00,40.3,29.1,30.27,ENE,78,10.0,19.0,64,0.00,,,0.00,meteohub,2013-04-20 11:57:00,
2013-04-20 07:02:00,40.3,29.1,30.27,ENE,75,9.0,20.0,64,0.00,,,0.00,meteohub,2013-04-20 12:02:00,
2013-04-20 07:07:00,40.3,29.1,30.27,East,84,12.0,20.0,64,0.00,,,0.00,meteohub,2013-04-20 12:07:00,
2013-04-20 07:12:00,40.3,29.1,30.27,NE,54,15.0,19.0,64,0.00,,,0.00,meteohub,2013-04-20 12:12:00,
2013-04-20 07:17:00,40.3,29.1,30.27,East,101,14.0,21.0,64,0.00,,,0.00,meteohub,2013-04-20 12:17:00,
2013-04-20 07:22:00,40.5,29.3,30.27,East,92,13.0,21.0,64,0.00,,,0.00,meteohub,2013-04-20 12:22:00,
2013-04-20 07:27:00,40.5,29.3,30.27,ENE,70,9.0,21.0,64,0.00,,,0.00,meteohub,2013-04-20 12:27:00,
2013-04-20 07:32:00,40.5,29.3,30.27,East,98,18.0,22.0,64,0.00,,,0.00,meteohub,2013-04-20 12:32:00,
2013-04-20 07:37:00,40.5,29.3,30.27,ESE,105,9.0,22.0,64,0.00,,,0.00,meteohub,2013-04-20 12:37:00,
2013-04-20 07:42:00,40.6,29.5,30.27,East,87,14.0,22.0,64,0.00,,,0.00,meteohub,2013-04-20 12:42:00,
2013-04-20 07:47:00,40.6,29.5,30.27,East,90,17.0,21.0,64,0.00,,,0.00,meteohub,2013-04-20 12:47:00,
2013-04-20 07:52:00,40.6,29.5,30.28,ENE,75,9.0,23.0,64,0.00,,,0.00,meteohub,2013-04-20 12:52:00,
2013-04-20 07:57:00,40.6,29.5,30.28,East,101,15.0,23.0,64,0.00,,,0.00,meteohub,2013-04-20 12:57:00,
2013-04-20 08:02:00,40.8,29.7,30.28,East,91,19.0,23.0,64,0.00,,,0.00,meteohub,2013-04-20 13:02:00,
2013-04-20 08:06:00,41.0,29.8,30.28,East,100,11.0,22.0,64,0.00,,,0.00,meteohub,2013-04-20 13:06:00,
2013-04-20 08:12:00,41.2,30.0,30.28,ESE,102,15.0,22.0,64,0.00,,,0.00,meteohub,2013-04-20 13:12:00,
2013-04-20 08:17:00,41.4,30.0,30.28,ESE,103,13.0,22.0,64,0.00,,,0.00,meteohub,2013-04-20 13:17:00,
2013-04-20 08:22:00,41.5,30.2,30.28,ESE,103,18.0,18.0,64,0.00,,,0.00,meteohub,2013-04-20 13:22:00,
2013-04-20 08:27:00,41.5,30.2,30.28,East,96,19.0,19.0,64,0.00,,,0.00,meteohub,2013-04-20 13:27:00,
2013-04-20 08:32:00,41.9,30.2,30.28,ESE,115,9.0,19.0,63,0.00,,,0.00,meteohub,2013-04-20 13:32:00,
2013-04-20 08:37:00,42.3,30.6,30.28,East,88,19.0,19.0,63,0.00,,,0.00,meteohub,2013-04-20 13:37:00,
2013-04-20 08:42:00,42.6,30.6,30.28,East,96,13.0,23.0,62,0.00,,,0.00,meteohub,2013-04-20 13:42:00,
2013-04-20 08:47:00,43.2,30.6,30.28,East,79,11.0,23.0,61,0.00,,,0.00,meteohub,2013-04-20 13:47:00,
2013-04-20 08:52:00,43.7,30.7,30.28,East,82,17.0,23.0,60,0.00,,,0.00,meteohub,2013-04-20 13:52:00,
2013-04-20 08:57:00,44.2,31.3,30.28,ESE,103,15.0,22.0,60,0.00,,,0.00,meteohub,2013-04-20 13:57:00,
2013-04-20 09:02:00,44.8,31.3,30.28,East,93,18.0,22.0,59,0.00,,,0.00,meteohub,2013-04-20 14:02:00,
2013-04-20 09:07:00,45.1,31.3,30.28,East,94,21.0,24.0,58,0.00,,,0.00,meteohub,2013-04-20 14:07:00,
2013-04-20 09:12:00,45.7,31.8,30.28,East,89,17.0,24.0,58,0.00,,,0.00,meteohub,2013-04-20 14:12:00,
2013-04-20 09:17:00,46.0,31.6,30.28,East,79,17.0,24.0,57,0.00,,,0.00,meteohub,2013-04-20 14:17:00,
2013-04-20 09:22:00,46.4,32.0,30.28,East,87,15.0,23.0,57,0.00,,,0.00,meteohub,2013-04-20 14:22:00,
2013-04-20 09:27:00,46.8,32.4,30.28,ENE,77,18.0,21.0,57,0.00,,,0.00,meteohub,2013-04-20 14:27:00,
2013-04-20 09:32:00,47.1,32.2,30.28,ESE,113,13.0,21.0,56,0.00,,,0.00,meteohub,2013-04-20 14:32:00,
2013-04-20 09:36:00,47.7,32.4,30.28,ESE,105,20.0,21.0,55,0.00,,,0.00,meteohub,2013-04-20 14:36:00,
2013-04-20 09:41:00,47.8,32.5,30.28,ESE,103,14.0,24.0,55,0.00,,,0.00,meteohub,2013-04-20 14:41:00,
2013-04-20 09:47:00,48.0,32.2,30.28,East,101,15.0,24.0,54,0.00,,,0.00,meteohub,2013-04-20 14:47:00,
2013-04-20 09:52:00,48.4,32.5,30.28,East,92,22.0,24.0,54,0.00,,,0.00,meteohub,2013-04-20 14:52:00,
2013-04-20 09:57:00,48.7,32.4,30.28,ESE,109,18.0,23.0,53,0.00,,,0.00,meteohub,2013-04-20 14:57:00,
2013-04-20 10:02:00,48.9,32.5,30.29,ESE,103,15.0,23.0,53,0.00,,,0.00,meteohub,2013-04-20 15:02:00,
2013-04-20 10:07:00,49.1,32.7,30.29,ENE,74,16.0,23.0,53,0.00,,,0.00,meteohub,2013-04-20 15:07:00,
2013-04-20 10:12:00,49.5,32.5,30.29,ESE,109,20.0,23.0,52,0.00,,,0.00,meteohub,2013-04-20 15:12:00,
2013-04-20 10:17:00,49.6,32.7,30.29,SE,124,7.0,24.0,52,0.00,,,0.00,meteohub,2013-04-20 15:17:00,
2013-04-20 10:22:00,50.2,33.3,30.29,SE,127,9.0,24.0,52,0.00,,,0.00,meteohub,2013-04-20 15:22:00,
2013-04-20 10:27:00,50.4,32.9,30.29,East,90,15.0,24.0,51,0.00,,,0.00,meteohub,2013-04-20 15:27:00,
2013-04-20 10:32:00,50.5,33.1,30.28,ESE,108,17.0,23.0,51,0.00,,,0.00,meteohub,2013-04-20 15:32:00,
2013-04-20 10:37:00,50.9,33.4,30.29,ENE,78,14.0,23.0,51,0.00,,,0.00,meteohub,2013-04-20 15:37:00,
2013-04-20 10:42:00,51.3,33.3,30.28,ESE,116,16.0,23.0,50,0.00,,,0.00,meteohub,2013-04-20 15:42:00,
2013-04-20 10:47:00,51.6,33.6,30.28,ESE,122,13.0,22.0,50,0.00,,,0.00,meteohub,2013-04-20 15:47:00,
2013-04-20 10:52:00,52.2,34.2,30.28,ESE,103,15.0,22.0,50,0.00,,,0.00,meteohub,2013-04-20 15:52:00,
2013-04-20 10:57:00,52.3,33.3,30.28,ESE,105,14.0,20.0,48,0.00,,,0.00,meteohub,2013-04-20 15:57:00,
2013-04-20 11:02:00,52.7,33.6,30.28,ESE,116,15.0,21.0,48,0.00,,,0.00,meteohub,2013-04-20 16:02:00,
2013-04-20 11:07:00,53.2,33.1,30.27,South,174,11.0,22.0,46,0.00,,,0.00,meteohub,2013-04-20 16:07:00,
2013-04-20 11:12:00,53.6,32.7,30.27,ESE,105,17.0,22.0,45,0.00,,,0.00,meteohub,2013-04-20 16:12:00,
2013-04-20 11:17:00,54.1,32.7,30.27,ESE,103,13.0,22.0,44,0.00,,,0.00,meteohub,2013-04-20 16:17:00,
2013-04-20 11:22:00,54.1,32.7,30.28,East,97,8.0,21.0,44,0.00,,,0.00,meteohub,2013-04-20 16:22:00,
2013-04-20 11:27:00,53.8,32.9,30.28,ESE,119,15.0,23.0,45,0.00,,,0.00,meteohub,2013-04-20 16:27:00,
2013-04-20 11:32:00,54.0,34.2,30.27,ESE,105,21.0,23.0,47,0.00,,,0.00,meteohub,2013-04-20 16:32:00,
2013-04-20 11:37:00,54.3,34.0,30.27,ESE,102,19.0,24.0,46,0.00,,,0.00,meteohub,2013-04-20 16:37:00,
2013-04-20 11:42:00,54.3,34.0,30.27,ESE,108,20.0,24.0,46,0.00,,,0.00,meteohub,2013-04-20 16:42:00,
2013-04-20 11:47:00,54.5,33.6,30.27,East,101,17.0,24.0,45,0.00,,,0.00,meteohub,2013-04-20 16:47:00,
2013-04-20 11:51:00,54.7,33.3,30.27,ESE,108,16.0,22.0,44,0.00,,,0.00,meteohub,2013-04-20 16:51:00,
2013-04-20 11:57:00,54.9,33.4,30.27,East,100,11.0,22.0,44,0.00,,,0.00,meteohub,2013-04-20 16:57:00,
2013-04-20 12:02:00,55.6,34.5,30.26,ESE,115,12.0,22.0,45,0.00,,,0.00,meteohub,2013-04-20 17:02:00,
2013-04-20 12:07:00,55.8,34.2,30.26,ESE,105,16.0,20.0,44,0.00,,,0.00,meteohub,2013-04-20 17:07:00,
2013-04-20 12:12:00,55.6,34.5,30.26,ESE,122,20.0,21.0,45,0.00,,,0.00,meteohub,2013-04-20 17:12:00,
2013-04-20 12:17:00,55.9,34.9,30.25,SE,131,9.0,21.0,45,0.00,,,0.00,meteohub,2013-04-20 17:17:00,
2013-04-20 12:22:00,56.5,34.3,30.25,SSE,152,10.0,21.0,43,0.00,,,0.00,meteohub,2013-04-20 17:22:00,
2013-04-20 12:27:00,56.8,34.5,30.25,ESE,105,15.0,20.0,43,0.00,,,0.00,meteohub,2013-04-20 17:27:00,
2013-04-20 12:32:00,57.2,33.1,30.25,SE,124,13.0,19.0,40,0.00,,,0.00,meteohub,2013-04-20 17:32:00,
2013-04-20 12:37:00,57.9,34.3,30.25,SE,146,8.0,19.0,41,0.00,,,0.00,meteohub,2013-04-20 17:37:00,
2013-04-20 12:41:00,57.9,33.8,30.24,SE,127,15.0,22.0,40,0.00,,,0.00,meteohub,2013-04-20 17:41:00,
2013-04-20 12:47:00,58.3,34.0,30.24,ESE,112,16.0,22.0,40,0.00,,,0.00,meteohub,2013-04-20 17:47:00,
2013-04-20 12:52:00,58.3,34.0,30.24,ESE,121,13.0,22.0,40,0.00,,,0.00,meteohub,2013-04-20 17:52:00,
2013-04-20 12:57:00,58.3,34.0,30.24,ESE,112,15.0,22.0,40,0.00,,,0.00,meteohub,2013-04-20 17:57:00,
2013-04-20 13:02:00,58.8,34.5,30.23,ESE,115,14.0,22.0,40,0.00,,,0.00,meteohub,2013-04-20 18:02:00,
2013-04-20 13:07:00,59.2,34.9,30.23,South,173,11.0,22.0,40,0.00,,,0.00,meteohub,2013-04-20 18:07:00,
2013-04-20 13:11:00,59.0,34.2,30.23,SSE,158,7.0,19.0,39,0.00,,,0.00,meteohub,2013-04-20 18:11:00,
2013-04-20 13:17:00,59.2,34.9,30.22,ESE,119,9.0,17.0,40,0.00,,,0.00,meteohub,2013-04-20 18:17:00,
2013-04-20 13:22:00,59.2,34.2,30.22,ESE,108,10.0,17.0,39,0.00,,,0.00,meteohub,2013-04-20 18:22:00,
2013-04-20 13:27:00,59.4,35.1,30.22,ESE,115,15.0,17.0,40,0.00,,,0.00,meteohub,2013-04-20 18:27:00,
2013-04-20 13:31:00,59.5,35.2,30.22,SSW,211,4.0,21.0,40,0.00,,,0.00,meteohub,2013-04-20 18:31:00,
2013-04-20 13:36:00,59.7,35.4,30.22,ESE,113,11.0,21.0,40,0.00,,,0.00,meteohub,2013-04-20 18:36:00,
2013-04-20 13:41:00,59.5,35.8,30.22,SE,124,12.0,21.0,41,0.00,,,0.00,meteohub,2013-04-20 18:41:00,
2013-04-20 13:47:00,59.4,35.6,30.22,SE,138,13.0,19.0,41,0.00,,,0.00,meteohub,2013-04-20 18:47:00,
2013-04-20 13:52:00,59.7,35.4,30.22,SSW,197,16.0,22.0,40,0.00,,,0.00,meteohub,2013-04-20 18:52:00,
2013-04-20 13:57:00,60.4,33.4,30.22,SSE,167,9.0,22.0,36,0.00,,,0.00,meteohub,2013-04-20 18:57:00,
2013-04-20 14:02:00,60.6,33.4,30.22,South,179,7.0,21.0,36,0.00,,,0.00,meteohub,2013-04-20 19:02:00,
2013-04-20 14:07:00,61.0,34.5,30.21,SE,133,10.0,21.0,37,0.00,,,0.00,meteohub,2013-04-20 19:07:00,
2013-04-20 14:12:00,61.0,34.5,30.21,SSE,165,14.0,19.0,37,0.00,,,0.00,meteohub,2013-04-20 19:12:00,
2013-04-20 14:17:00,61.0,34.5,30.21,SSE,158,8.0,22.0,37,0.00,,,0.00,meteohub,2013-04-20 19:17:00,
2013-04-20 14:22:00,61.2,34.0,30.21,ESE,122,14.0,22.0,36,0.00,,,0.00,meteohub,2013-04-20 19:22:00,
2013-04-20 14:27:00,61.2,34.0,30.21,SE,145,6.0,22.0,36,0.00,,,0.00,meteohub,2013-04-20 19:27:00,
2013-04-20 14:32:00,61.2,34.0,30.21,SSE,155,12.0,19.0,36,0.00,,,0.00,meteohub,2013-04-20 19:32:00,
2013-04-20 14:37:00,61.2,34.7,30.21,SE,135,8.0,20.0,37,0.00,,,0.00,meteohub,2013-04-20 19:37:00,
2013-04-20 14:42:00,61.2,34.7,30.20,South,173,13.0,20.0,37,0.00,,,0.00,meteohub,2013-04-20 19:42:00,
2013-04-20 14:47:00,61.0,34.5,30.20,South,170,10.0,20.0,37,0.00,,,0.00,meteohub,2013-04-20 19:47:00,
2013-04-20 14:52:00,61.0,33.8,30.20,SSE,154,7.0,23.0,36,0.00,,,0.00,meteohub,2013-04-20 19:52:00,
2013-04-20 14:57:00,61.0,33.8,30.19,South,188,10.0,23.0,36,0.00,,,0.00,meteohub,2013-04-20 19:57:00,
2013-04-20 15:02:00,61.2,34.0,30.19,SE,127,11.0,23.0,36,0.00,,,0.00,meteohub,2013-04-20 20:02:00,
2013-04-20 15:07:00,61.2,34.0,30.19,SSE,153,10.0,22.0,36,0.00,,,0.00,meteohub,2013-04-20 20:07:00,
2013-04-20 15:12:00,61.2,34.7,30.19,SE,132,4.0,21.0,37,0.00,,,0.00,meteohub,2013-04-20 20:12:00,
2013-04-20 15:17:00,61.2,34.0,30.19,ESE,111,14.0,21.0,36,0.00,,,0.00,meteohub,2013-04-20 20:17:00,
2013-04-20 15:22:00,61.3,34.2,30.19,SSE,152,12.0,21.0,36,0.00,,,0.00,meteohub,2013-04-20 20:22:00,
2013-04-20 15:27:00,61.2,34.7,30.18,SE,124,11.0,21.0,37,0.00,,,0.00,meteohub,2013-04-20 20:27:00,
2013-04-20 15:32:00,61.2,34.7,30.18,SE,129,13.0,21.0,37,0.00,,,0.00,meteohub,2013-04-20 20:32:00,
2013-04-20 15:37:00,61.2,34.0,30.18,East,94,12.0,21.0,36,0.00,,,0.00,meteohub,2013-04-20 20:37:00,
2013-04-20 15:42:00,61.0,34.5,30.18,ESE,108,16.0,21.0,37,0.00,,,0.00,meteohub,2013-04-20 20:42:00,
2013-04-20 15:47:00,61.0,34.5,30.18,ESE,103,13.0,20.0,37,0.00,,,0.00,meteohub,2013-04-20 20:47:00,
2013-04-20 15:52:00,61.0,34.5,30.17,ESE,119,13.0,20.0,37,0.00,,,0.00,meteohub,2013-04-20 20:52:00,
2013-04-20 15:57:00,61.2,34.7,30.17,East,101,12.0,19.0,37,0.00,,,0.00,meteohub,2013-04-20 20:57:00,
2013-04-20 16:02:00,61.0,33.8,30.17,ESE,122,12.0,19.0,36,0.00,,,0.00,meteohub,2013-04-20 21:02:00,
2013-04-20 16:07:00,60.8,34.3,30.17,ESE,114,13.0,23.0,37,0.00,,,0.00,meteohub,2013-04-20 21:07:00,
2013-04-20 16:12:00,61.0,34.5,30.17,ESE,103,9.0,23.0,37,0.00,,,0.00,meteohub,2013-04-20 21:12:00,
2013-04-20 16:17:00,60.8,34.3,30.17,SE,127,9.0,23.0,37,0.00,,,0.00,meteohub,2013-04-20 21:17:00,
2013-04-20 16:22:00,60.8,33.6,30.17,ESE,103,9.0,26.0,36,0.00,,,0.00,meteohub,2013-04-20 21:22:00,
2013-04-20 16:27:00,60.6,34.2,30.16,East,97,18.0,26.0,37,0.00,,,0.00,meteohub,2013-04-20 21:27:00,
2013-04-20 16:32:00,60.4,34.7,30.17,East,80,20.0,26.0,38,0.00,,,0.00,meteohub,2013-04-20 21:32:00,
2013-04-20 16:37:00,60.4,34.7,30.17,ENE,74,19.0,26.0,38,0.00,,,0.00,meteohub,2013-04-20 21:37:00,
2013-04-20 16:42:00,60.4,34.7,30.16,East,94,24.0,26.0,38,0.00,,,0.00,meteohub,2013-04-20 21:42:00,
2013-04-20 16:47:00,60.4,34.7,30.16,East,96,22.0,25.0,38,0.00,,,0.00,meteohub,2013-04-20 21:47:00,
2013-04-20 16:52:00,60.4,34.7,30.16,ESE,105,13.0,26.0,38,0.00,,,0.00,meteohub,2013-04-20 21:52:00,
2013-04-20 16:57:00,60.3,34.5,30.15,East,96,17.0,26.0,38,0.00,,,0.00,meteohub,2013-04-20 21:57:00,
2013-04-20 17:02:00,60.4,35.4,30.15,East,93,21.0,26.0,39,0.00,,,0.00,meteohub,2013-04-20 22:02:00,
2013-04-20 17:07:00,60.4,34.7,30.15,East,96,19.0,24.0,38,0.00,,,0.00,meteohub,2013-04-20 22:07:00,
2013-04-20 17:12:00,60.4,35.4,30.15,East,101,15.0,26.0,39,0.00,,,0.00,meteohub,2013-04-20 22:12:00,
2013-04-20 17:17:00,60.6,35.6,30.15,East,101,12.0,26.0,39,0.00,,,0.00,meteohub,2013-04-20 22:17:00,
2013-04-20 17:22:00,61.0,35.8,30.14,ESE,102,15.0,26.0,39,0.00,,,0.00,meteohub,2013-04-20 22:22:00,
2013-04-20 17:27:00,61.0,35.2,30.15,East,94,20.0,24.0,38,0.00,,,0.00,meteohub,2013-04-20 22:27:00,
2013-04-20 17:32:00,60.6,34.9,30.15,ESE,108,14.0,24.0,38,0.00,,,0.00,meteohub,2013-04-20 22:32:00,
2013-04-20 17:37:00,60.6,34.9,30.15,East,85,16.0,26.0,38,0.00,,,0.00,meteohub,2013-04-20 22:37:00,
2013-04-20 17:42:00,60.6,34.9,30.15,ESE,119,15.0,26.0,38,0.00,,,0.00,meteohub,2013-04-20 22:42:00,
2013-04-20 17:47:00,60.8,35.6,30.15,ESE,108,9.0,26.0,39,0.00,,,0.00,meteohub,2013-04-20 22:47:00,
2013-04-20 17:52:00,60.8,35.1,30.14,East,92,18.0,23.0,38,0.00,,,0.00,meteohub,2013-04-20 22:52:00,
2013-04-20 17:57:00,60.8,35.1,30.14,East,98,14.0,23.0,38,0.00,,,0.00,meteohub,2013-04-20 22:57:00,
2013-04-20 18:02:00,60.8,35.1,30.14,East,83,20.0,23.0,38,0.00,,,0.00,meteohub,2013-04-20 23:02:00,
2013-04-20 18:07:00,60.6,34.9,30.14,ESE,121,20.0,25.0,38,0.00,,,0.00,meteohub,2013-04-20 23:07:00,
2013-04-20 18:12:00,60.6,34.9,30.14,ESE,103,15.0,25.0,38,0.00,,,0.00,meteohub,2013-04-20 23:12:00,
2013-04-20 18:17:00,60.6,34.9,30.14,ESE,110,17.0,25.0,38,0.00,,,0.00,meteohub,2013-04-20 23:17:00,
2013-04-20 18:22:00,60.6,34.9,30.14,ESE,111,15.0,26.0,38,0.00,,,0.00,meteohub,2013-04-20 23:22:00,
2013-04-20 18:27:00,60.6,34.9,30.15,East,101,17.0,26.0,38,0.00,,,0.00,meteohub,2013-04-20 23:27:00,
2013-04-20 18:32:00,60.8,35.1,30.15,ESE,110,14.0,26.0,38,0.00,,,0.00,meteohub,2013-04-20 23:32:00,
2013-04-20 18:37:00,60.8,35.1,30.16,ESE,108,14.0,22.0,38,0.00,,,0.00,meteohub,2013-04-20 23:37:00,
2013-04-20 18:42:00,60.6,36.1,30.16,East,91,14.0,26.0,40,0.00,,,0.00,meteohub,2013-04-20 23:42:00,
2013-04-20 18:47:00,60.6,36.1,30.16,East,83,15.0,28.0,40,0.00,,,0.00,meteohub,2013-04-20 23:47:00,
2013-04-20 18:52:00,60.4,36.7,30.16,ESE,112,18.0,28.0,41,0.00,,,0.00,meteohub,2013-04-20 23:52:00,
2013-04-20 18:57:00,60.4,36.7,30.16,ENE,70,17.0,28.0,41,0.00,,,0.00,meteohub,2013-04-20 23:57:00,
2013-04-20 19:02:00,60.3,37.0,30.16,East,101,11.0,23.0,42,0.00,,,0.00,meteohub,2013-04-21 00:02:00,
2013-04-20 19:07:00,60.3,37.0,30.16,East,84,18.0,24.0,42,0.00,,,0.00,meteohub,2013-04-21 00:07:00,
2013-04-20 19:12:00,60.1,36.9,30.17,ESE,103,14.0,29.0,42,0.00,,,0.00,meteohub,2013-04-21 00:12:00,
2013-04-20 19:17:00,59.9,36.7,30.16,ESE,115,13.0,29.0,42,0.00,,,0.00,meteohub,2013-04-21 00:17:00,
2013-04-20 19:22:00,59.7,36.5,30.17,East,89,15.0,24.0,42,0.00,,,0.00,meteohub,2013-04-21 00:22:00,
2013-04-20 19:27:00,59.7,37.2,30.17,East,88,21.0,23.0,43,0.00,,,0.00,meteohub,2013-04-21 00:27:00,
2013-04-20 19:32:00,59.5,37.0,30.17,East,84,18.0,25.0,43,0.00,,,0.00,meteohub,2013-04-21 00:32:00,
2013-04-20 19:37:00,59.5,37.0,30.17,East,89,14.0,25.0,43,0.00,,,0.00,meteohub,2013-04-21 00:37:00,
2013-04-20 19:42:00,59.5,37.0,30.17,ESE,109,13.0,25.0,43,0.00,,,0.00,meteohub,2013-04-21 00:42:00,
2013-04-20 19:47:00,59.4,37.4,30.17,SE,129,12.0,23.0,44,0.00,,,0.00,meteohub,2013-04-21 00:47:00,
2013-04-20 19:52:00,59.4,37.4,30.17,SE,131,7.0,23.0,44,0.00,,,0.00,meteohub,2013-04-21 00:52:00,
2013-04-20 19:57:00,59.2,37.2,30.17,East,101,19.0,22.0,44,0.00,,,0.00,meteohub,2013-04-21 00:57:00,
2013-04-20 20:02:00,59.0,37.8,30.17,East,94,14.0,21.0,45,0.00,,,0.00,meteohub,2013-04-21 01:02:00,
2013-04-20 20:07:00,58.8,37.6,30.18,East,84,17.0,23.0,45,0.00,,,0.00,meteohub,2013-04-21 01:07:00,
2013-04-20 20:12:00,58.8,37.6,30.18,East,101,14.0,23.0,45,0.00,,,0.00,meteohub,2013-04-21 01:12:00,
2013-04-20 20:17:00,58.6,37.9,30.18,SE,129,11.0,23.0,46,0.00,,,0.00,meteohub,2013-04-21 01:17:00,
2013-04-20 20:22:00,58.6,38.5,30.19,ESE,119,12.0,21.0,47,0.00,,,0.00,meteohub,2013-04-21 01:22:00,
2013-04-20 20:27:00,58.5,38.3,30.19,ESE,105,13.0,21.0,47,0.00,,,0.00,meteohub,2013-04-21 01:27:00,
2013-04-20 20:32:00,58.5,38.3,30.19,East,94,12.0,21.0,47,0.00,,,0.00,meteohub,2013-04-21 01:32:00,
2013-04-20 20:37:00,58.5,38.8,30.19,East,95,17.0,19.0,48,0.00,,,0.00,meteohub,2013-04-21 01:37:00,
2013-04-20 20:41:00,58.5,38.8,30.19,ESE,108,12.0,19.0,48,0.00,,,0.00,meteohub,2013-04-21 01:41:00,
2013-04-20 20:47:00,58.3,38.7,30.19,ESE,102,17.0,22.0,48,0.00,,,0.00,meteohub,2013-04-21 01:47:00,
2013-04-20 20:52:00,58.3,38.7,30.19,East,99,18.0,22.0,48,0.00,,,0.00,meteohub,2013-04-21 01:52:00,
2013-04-20 20:57:00,58.3,38.7,30.19,East,93,15.0,21.0,48,0.00,,,0.00,meteohub,2013-04-21 01:57:00,
2013-04-20 21:02:00,57.9,38.8,30.19,East,86,15.0,21.0,49,0.00,,,0.00,meteohub,2013-04-21 02:02:00,
2013-04-20 21:07:00,57.9,38.8,30.20,SE,129,13.0,21.0,49,0.00,,,0.00,meteohub,2013-04-21 02:07:00,
2013-04-20 21:12:00,57.9,38.8,30.20,East,89,12.0,20.0,49,0.00,,,0.00,meteohub,2013-04-21 02:12:00,
2013-04-20 21:17:00,57.7,39.2,30.20,East,101,14.0,21.0,50,0.00,,,0.00,meteohub,2013-04-21 02:17:00,
2013-04-20 21:22:00,57.7,39.2,30.20,East,94,12.0,21.0,50,0.00,,,0.00,meteohub,2013-04-21 02:22:00,
2013-04-20 21:27:00,57.6,39.0,30.20,ESE,103,17.0,21.0,50,0.00,,,0.00,meteohub,2013-04-21 02:27:00,
2013-04-20 21:32:00,57.6,39.6,30.20,ESE,108,12.0,21.0,51,0.00,,,0.00,meteohub,2013-04-21 02:32:00,
2013-04-20 21:37:00,57.6,39.0,30.20,East,100,15.0,23.0,50,0.00,,,0.00,meteohub,2013-04-21 02:37:00,
2013-04-20 21:42:00,57.4,39.4,30.21,East,89,8.0,23.0,51,0.00,,,0.00,meteohub,2013-04-21 02:42:00,
2013-04-20 21:47:00,57.4,39.4,30.21,ESE,108,10.0,23.0,51,0.00,,,0.00,meteohub,2013-04-21 02:47:00,
2013-04-20 21:52:00,57.4,39.4,30.21,ESE,114,8.0,18.0,51,0.00,,,0.00,meteohub,2013-04-21 02:52:00,
2013-04-20 21:57:00,57.2,39.2,30.22,East,96,11.0,18.0,51,0.00,,,0.00,meteohub,2013-04-21 02:57:00,
2013-04-20 22:02:00,57.4,38.8,30.22,North,8,8.0,18.0,50,0.00,,,0.00,meteohub,2013-04-21 03:02:00,
2013-04-20 22:07:00,57.4,38.8,30.22,SE,140,6.0,18.0,50,0.00,,,0.00,meteohub,2013-04-21 03:07:00,
2013-04-20 22:12:00,57.4,38.3,30.22,ESE,112,5.0,18.0,49,0.00,,,0.00,meteohub,2013-04-21 03:12:00,
2013-04-20 22:17:00,57.4,38.3,30.22,ESE,109,13.0,17.0,49,0.00,,,0.00,meteohub,2013-04-21 03:17:00,
2013-04-20 22:22:00,57.4,38.3,30.22,East,81,8.0,17.0,49,0.00,,,0.00,meteohub,2013-04-21 03:22:00,
2013-04-20 22:27:00,57.4,38.3,30.22,ESE,115,8.0,13.0,49,0.00,,,0.00,meteohub,2013-04-21 03:27:00,
2013-04-20 22:32:00,57.7,37.6,30.22,SE,124,13.0,15.0,47,0.00,,,0.00,meteohub,2013-04-21 03:32:00,
2013-04-20 22:37:00,58.1,37.4,30.22,ESE,108,9.0,16.0,46,0.00,,,0.00,meteohub,2013-04-21 03:37:00,
2013-04-20 22:42:00,58.5,36.7,30.22,SE,131,10.0,16.0,44,0.00,,,0.00,meteohub,2013-04-21 03:42:00,
2013-04-20 22:47:00,58.8,36.3,30.22,SSE,152,8.0,16.0,43,0.00,,,0.00,meteohub,2013-04-21 03:47:00,
2013-04-20 22:52:00,59.2,36.1,30.22,SE,132,9.0,17.0,42,0.00,,,0.00,meteohub,2013-04-21 03:52:00,
2013-04-20 22:57:00,59.2,36.1,30.23,ESE,119,13.0,17.0,42,0.00,,,0.00,meteohub,2013-04-21 03:57:00,
2013-04-20 23:01:00,58.8,36.3,30.23,ESE,122,9.0,17.0,43,0.00,,,0.00,meteohub,2013-04-21 04:01:00,
2013-04-20 23:02:00,58.8,36.3,30.23,ESE,112,15.0,17.0,43,0.00,,,0.00,meteohub,2013-04-21 04:02:00,
2013-04-20 23:07:00,58.6,36.9,30.23,ESE,103,17.0,17.0,44,0.00,,,0.00,meteohub,2013-04-21 04:07:00,
2013-04-20 23:12:00,58.5,36.7,30.23,ESE,112,16.0,17.0,44,0.00,,,0.00,meteohub,2013-04-21 04:12:00,
2013-04-20 23:17:00,58.1,36.9,30.24,ESE,108,11.0,17.0,45,0.00,,,0.00,meteohub,2013-04-21 04:17:00,
2013-04-20 23:22:00,57.7,36.5,30.24,ESE,113,10.0,17.0,45,0.00,,,0.00,meteohub,2013-04-21 04:22:00,
2013-04-20 23:27:00,57.7,37.0,30.24,East,100,9.0,16.0,46,0.00,,,0.00,meteohub,2013-04-21 04:27:00,
2013-04-20 23:32:00,57.6,36.9,30.24,SE,129,9.0,15.0,46,0.00,,,0.00,meteohub,2013-04-21 04:32:00,
2013-04-20 23:37:00,57.6,36.9,30.24,ESE,122,8.0,12.0,46,0.00,,,0.00,meteohub,2013-04-21 04:37:00,
2013-04-20 23:42:00,57.6,36.9,30.24,ESE,112,8.0,13.0,46,0.00,,,0.00,meteohub,2013-04-21 04:42:00,
2013-04-20 23:47:00,57.6,36.3,30.24,SE,134,6.0,13.0,45,0.00,,,0.00,meteohub,2013-04-21 04:47:00,
2013-04-20 23:52:00,57.6,36.3,30.24,SE,133,7.0,14.0,45,0.00,,,0.00,meteohub,2013-04-21 04:52:00,
2013-04-20 23:57:00,57.7,36.5,30.24,SSE,165,8.0,14.0,45,0.00,,,0.00,meteohub,2013-04-21 04:57:00,